User: anonymous   Login
Location: Unspecified
(0.0000°N, 0.0000°E)
Time: 05:50:05
(UTC+00:00)
Language:

OBJECT A - Orbit

View from above orbital plane
View from above orbital plane
View from above satellite
View from above satellite

Ground track
Ground track

The orbit is defined by the following mean orbital elements,

1 67556U          26145.34638124 +.00000000 +00000-0 +76609-4 0 00003
2 67556  88.9987 270.8517 0004791 127.0667 233.0924 13.52692423    00
Epoch (UTC): 25 May 2026 08:18:47
Eccentricity: 0.0004791
inclination: 88.9987°
perigee height: 1059 km
apogee height: 1066 km
right ascension of ascending node: 270.8517°
argument of perigee: 127.0667°
revolutions per day: 13.52692423
mean anomaly at epoch: 233.0924°

The dashed part of the orbit path shows where the satellite is in the earth's shadow,  

DLR